Regional Weather Roundup
Issued by NWS

Current Version |  Previous Version |  Text Only |  Print | Product List |  Glossary On
Versions: 1 2 3 4 5 6 7 8 9 10 11 12 13 14 15 16 17 18 19 20 21 22 23 24 25 26 27 28
429
ASUS44 KLUB 182310
RWRLUB
WEST TEXAS WEATHER ROUNDUP
NATIONAL WEATHER SERVICE LUBBOCK TX
600 PM CDT SAT MAY 18 2024

NOTE: "FAIR" INDICATES FEW OR NO CLOUDS BELOW 12,000 FEET WITH NO
SIGNIFICANT WEATHER AND/OR OBSTRUCTIONS TO VISIBILITY.

TXZ004-006>008-010-012-014-016-OKZ002-190000-
TEXAS PANHANDLE/OKLAHOMA PANHANDLE

CITY           SKY/WX    TMP DP  RH WIND       PRES   REMARKS
AMARILLO       MOSUNNY   92  36  14 CALM      29.86S
BORGER         SUNNY     95  42  16 N8        29.85S
CANADIAN       SUNNY     91  53  27 SE15G23   29.83S
DALHART        MOSUNNY   90  41  18 E9        29.91F
DUMAS          SUNNY     88  40  18 N5        29.90S
GUYMON         SUNNY     88  54  31 SE7G18    29.84F
HEREFORD       MOSUNNY   94  29  10 CALM      29.89S
PAMPA          SUNNY     92  55  28 SE13G20   29.87S
PERRYTON       SUNNY    N/A N/A N/A SE16      29.85S
$$

TXZ026-029-035-045-048-190000-
SOUTHERN PANHANDLE/SOUTH PLAINS/ROLLING PLAINS

CITY           SKY/WX    TMP DP  RH WIND       PRES   REMARKS
CHILDRESS      SUNNY     95  57  27 S14G26    29.79S
SEMINOLE       SUNNY     96  29   9 W10       29.92S
LUBBOCK        MOSUNNY   95  31  10 VRB5      29.85F
PLAINVIEW      SUNNY     91  38  15 SE5       29.86S
SNYDER         SUNNY     96  38  13 SW5       29.83S
$$

TXZ052-054-060>062-072-078-127-140-154-169-190000-
PERMIAN BASIN/CONCHO VALLEY/BIG COUNTRY/EDWARDS PLATEAU

CITY           SKY/WX    TMP DP  RH WIND       PRES   REMARKS
ABILENE        SUNNY     94  63  35 SE15      29.82F HX  95
BIG SPRING     SUNNY     97  36  11 SW9       29.84S
BRADY          SUNNY     93  57  29 SE10      29.83F
BROWNWOOD      SUNNY     91  64  40 SE10      29.83S
JUNCTION       SUNNY    103  49  16 VRB3      29.83F HX  99
MIDLAND        SUNNY     97  31   9 N8        29.85F
ODESSA         SUNNY     97  32  10 MISG      29.86F
SAN ANGELO     LGT RAIN 101  34   9 VRB5      29.81S HX  95
SONORA         SUNNY     97  39  13 NE5       29.89F
SWEETWATER       N/A    101  41  12 SW8       29.85F HX  97
WINK           SUNNY    100  24   6 VRB5      29.81F
$$

TXZ055-058-074-075-080-082-190000-
FAR WEST/SOUTHWEST MOUNTAINS/TRANS PECOS

CITY           SKY/WX    TMP DP  RH WIND       PRES   REMARKS
ALPINE         SUNNY     92  21   7 W8        30.04S
DRYDEN           N/A    100  27   7 SW9       29.83F
EL PASO        MOSUNNY   94  22   7 VRB6G18   29.93F
FORT STOCKTON  SUNNY    100  31   9 VRB6      29.85F
MARFA          SUNNY     90  23   9 VRB7      30.04F
PECOS          SUNNY    100  22   6 S6        29.82F
PRESIDIO       SUNNY     98  42  14 E3        29.89F
$$

TXZ014-016-019-021>030-083-190000
TEXAS TECH WEST TEXAS MESONET/TEXAS PANHANDLE/NORTHERN SOUTH PLAINS

CITY           SKY/WX    TMP DP  RH WIND       PRES   REMARKS
ABERNATHY 5ENE   N/A     94  43  17 W6G15     29.87F
AMARILLO 9NNE    N/A     93  40  15 E5        29.86S
AMARILLO 7SSE    N/A     93  38  14 NE8       29.88S
AMHERST 1NE      N/A     93  29  10 CALM      29.88S
BOOTLEG 11WNW    N/A     91  25   9 NW5G21    29.96S
CANADIAN 6E      N/A     90  53  27 SE17      29.83S
CAPROCK CYN SP   N/A     94  53  25 CALM      29.83S
CHILDRESS 2NNE   N/A     93  59  32 SE16      29.81S
CLARENDON 2WSW   N/A     91  54  28 SE13      29.85S
CLAUDE 12SW      N/A     91  52  26 E9        29.87S
DIMMITT 2NE      N/A     92  30  11 NW10      29.90S
FLOYDADA 2NNE    N/A     94  48  21 S7        29.88S
FRIONA 2NE       N/A     91  26   9 CALM      29.90F
GOODLETT 3W      N/A     93  60  32 SE20      29.79S
HART 3N          N/A     93  31  11 SW5       29.89S
HEREFORD 2NW     N/A     90  31  12 S5        29.90S
MCLEAN 1E        N/A     90  53  28 SE12      29.85S
MEMPHIS 1NE      N/A     95  53  24 S10       29.81S
MULESHOE 2SSW    N/A     93  32  11 S10       29.89S
OLTON 6S         N/A     92  37  14 SE3       29.87S
PALO DURO SP     N/A     90  47  22 SE10      29.88S
PAMPA 2E         N/A     90  52  27 SE17      29.88S
PLAINVIEW 1S     N/A     93  41  16 SE7       29.87S
SILVERTON 7ESE   N/A     91  54  28 CALM      29.87S
TULIA 2ENE       N/A     92  43  17 E12       29.88S
TURKEY 2WSW      N/A     94  52  23 E9        29.80F
UMBARGER 3NNE    N/A     92  35  13 E7        29.90S
$$

TXZ033>036-039>041-045>048-190000
TEXAS TECH WEST TEXAS MESONET/SOUTH PLAINS

CITY           SKY/WX    TMP DP  RH WIND       PRES   REMARKS
AIKEN 3WSW       N/A     95  37  13 SE7       29.88S
ANDREWS 2NE      N/A     97  35  11 SW9       29.87S
ANTON 6SSW       N/A     95  32  11 SW9       29.87S
BROWNFIELD 2S    N/A     96  30   9 W10       29.87F
DENVR CTY 7WNW   N/A     95  24   8 NW8       29.90S
GAIL 2ESE        N/A     98  36  11 W5        29.82S
LAMESA 2SE       N/A     98  32  10 SW8       29.86S
LUBBOCK 3WNW     N/A     95  29   9 CALM      29.86S
MORTON 1ENE      N/A     93  30  10 CALM      29.90S
ODONNELL 1N      N/A     97  28   8 W13G18    29.86F
PLAINS 3N        N/A     94  27   9 SW10      29.91S
RALLS 1SE        N/A     97  31   9 S5        29.86S
REESE CENTER     N/A     94  31  10 W7        29.87S
SEAGRAVES 1SW    N/A     95  29   9 W10G16    29.88S
SEMINOLE 2NNE    N/A     96  29   9 W13       29.88S
SLATON 2NE       N/A     97  26   8 CALM      29.86S
SNYDER 3E        N/A     97  47  18 SE12      29.82F
SUNDOWN 8SW      N/A     95  30  10 SW10      29.89S
TAHOKA 3NNE      N/A     98  33  10 W7        29.86S
WOLFFORTH 6SSW   N/A     96  28   9 CALM      29.87S
$$

TXZ031-032-036>038-042>044-190000-
TEXAS TECH WEST TEXAS MESONET/ROLLING PLAINS

CITY           SKY/WX    TMP DP  RH WIND       PRES   REMARKS
ASPERMONT 3NE    N/A     95  61  32 SE12      29.78F HX  95
FLUVANNA 3WNW    N/A     97  40  14 S10       29.83F
GRAHAM 5SSW      N/A     99  28   8 SW13      29.84S
GUTHRIE 10WSW    N/A     95  53  23 SE14      29.79S
HASKELL 1NW      N/A     92  63  38 SE12      29.80R
JAYTON 1SSE      N/A     97  51  21 SE10      29.80S
KNOX CITY 3NW    N/A     94  63  34 SE14      29.79S HX  95
LK A HENRY 1NW   N/A     98  45  16 SE10      29.80F
NORTHFIELD 1S    N/A     95  56  27 SE9       29.79S
ODELL 4ENE       N/A     93  58  31 SE13      29.82S
PADUCAH 10SW     N/A     94  54  25 SE9       29.82S
POST 1NE         N/A    100  33   9 W7        29.81S
RRING SPRGS 3N   N/A     92  50  23 E10       29.84S
SEYMOUR 3NW      N/A     91  63  38 SE12      29.80S
SPUR 1W          N/A     96  47  18 SE7       29.80S
WEINERT 2NNE     N/A     93  63  35 S12       29.81R
WHITE RVR 6NE    N/A     96  45  17 E12       29.83S
$$

TXZ052-054-060>062-072-078-127-140-154-169-190000-
TEXAS TECH WEST TEXAS MESONET/PERMIAN BASIN/
CONCHO VALLEY/BIG COUNTRY/EDWARDS PLATEAU

CITY           SKY/WX    TMP DP  RH WIND       PRES   REMARKS
COYANOSA 2N      N/A    102  26   7 W9        29.83S HX  95
JUNCTION 1SSW    N/A     99  46  16 S6        29.84F HX  95
MERTZON 3NNE     N/A    101  32   9 CALM      29.85S
SAN ANGELO 7NW   N/A    100  43  14 CALM      29.82S HX  96
STRLNG CT 4WSW   N/A     99  37  11 CALM      29.85S
ST LAWRNCE 5SW   N/A     97  33  10 SW5       29.86F
SWEETWATR 11SW   N/A     97  44  16 W8        29.86S
WALL 1E          N/A    100  37  11 CALM      29.83S HX  95
$$

TXZ055-058-074-075-080-082-190000-
TEXAS TECH WEST TEXAS MESONET/FAR WEST/SOUTHWEST MOUNTAINS/TRANS PECOS

CITY           SKY/WX    TMP DP  RH WIND       PRES   REMARKS
PRSMN GAP BBNP   N/A     99  29   8 S8        29.88S
GUADLPE MTN NP   N/A     85  21   9 W7G25     30.06S
$$